Погода в Антропове

Россия / Костромская область     58°23′54″N   43°00′17″E
темп.,
°C
ветер,
м/с
пор.,
м/с
влажн.,
%
обл.,
%
осадки,
мм/ч
давл.,
гПа
погр.,
м
6 марта, сб
сб600:00−16зсз239782 0.0 101065
03:00−19зсз239751 0.0 101221
06:00−19зсз239973 0.0 101220
09:00−15зсз259657 0.0 1013197
12:00−11зсз249198 0.1 1013652
15:00−10зсз348799 0.1 1012842
18:00−13з2294100 0.1 101220
21:00−16зюз229664 0.1 101120
7 марта, вс
вс700:00−18ююз239854 0.0 100923
03:00−18ю3610060 0.0 1008106
06:00−17ю4109798 0.0 1004236
09:00−13ююв5109599 0.0 1000407
12:00−9ююв61193100 0.6 997841
15:00−8ююв61194100 1.8 993814
18:00−8юв51194100 1.1 990734
21:00−8юв41095100 2.4 988638
8 марта, пн
пн800:00−8зюз4995100 1.8 988580
03:00−11зюз3795100 2.5 989309
06:00−13зюз2497100 0.3 99095
09:00−10ссв4893100 0.5 992562
12:00−10с4791100 0.2 995726
15:00−10с5890100 0.4 998796
18:00−12с4993100 0.1 1002558
21:00−15с41093100 0.2 1005548
9 марта, вт
вт900:00−19ссз3996100 0.1 1008280
03:00−23ссз399898 0.1 1010197
06:00−26ссз389874 0.0 1012146
09:00−23ссз369768 0.0 1013239
12:00−19ссз359479 0.0 1014404
15:00−17ссз469190 0.1 1016600
18:00−21ссз3896100 0.0 1017198
21:00−24с399797 0.1 1020231
10 марта, ср
ср1000:00−29с359958 0.0 102185
03:00−31ссз239929 0.0 102262
06:00−32ссз33990 0.0 102475
09:00−26ссз25960 0.0 1025210
12:00−19зсз24910 0.0 1024332
15:00−15зсз488634 0.0 1023538
18:00−18з239424 0.0 102345
21:00−20зсз369757 0.0 1024104